QPF
0.00 0.00 0.00 0.00 0.01 0.01 0.01 0.01 0.02 0.02 0.01 0.01 0.01 0.00 0.00 0.00 0.01 0.01 0.02 0.02 0.02 0.02 0.01 0.00 0.01 0.01 0.02 0.01 0.01 0.01 0.01 0.02 0.02 0.03 0.04 0.08 0.08 0.06 0.05 0.03 0.01 0.01 0.02 0.02
0.00 0.00 0.00 0.00 0.00 0.00 0.00 0.01 0.01 0.01 0.01 0.01 0.01 0.01 0.00 0.00 0.00 0.00 0.00 0.01 0.01 0.02 0.02 0.02 0.01 0.01 0.01 0.01 0.01 0.01 0.01 0.02 0.02 0.02 0.03 0.04 0.06 0.06 0.06 0.04 0.02 0.01 0.02 0.02
0.00 0.00 0.00 0.00 0.00 0.00 0.00 0.00 0.00 0.01 0.01 0.01 0.01 0.01 0.01 0.01 0.00 0.00 0.00 0.00 0.00 0.01 0.01 0.02 0.02 0.02 0.01 0.01 0.01 0.01 0.01 0.02 0.02 0.03 0.03 0.03 0.05 0.04 0.05 0.05 0.03 0.02 0.02 0.03
0.00 0.00 0.00 0.00 0.00 0.00 0.00 0.00 0.00 0.00 0.01 0.01 0.01 0.00 0.00 0.00 0.00 0.00 0.00 0.00 0.01 0.01 0.01 0.02 0.02 0.02 0.02 0.02 0.01 0.01 0.01 0.02 0.03 0.03 0.03 0.02 0.03 0.04 0.03 0.03 0.03 0.02 0.02 0.03
0.00 0.00 0.00 0.00 0.00 0.00 0.00 0.00 0.00 0.00 0.01 0.01 0.01 0.00 0.00 0.01 0.00 0.00 0.00 0.00 0.01 0.02 0.02 0.02 0.03 0.02 0.02 0.02 0.02 0.01 0.01 0.02 0.02 0.02 0.02 0.01 0.02 0.02 0.02 0.03 0.03 0.02 0.02 0.02
0.00 0.00 0.00 0.00 0.00 0.00 0.00 0.00 0.00 0.00 0.01 0.01 0.00 0.00 0.01 0.01 0.00 0.00 0.00 0.00 0.00 0.02 0.02 0.03 0.05 0.04 0.04 0.04 0.05 0.03 0.02 0.02 0.01 0.01 0.01 0.02 0.02 0.02 0.02 0.02 0.03 0.02 0.02 0.01
0.00 0.00 0.00 0.00 0.00 0.00 0.00 0.00 0.00 0.00 0.01 0.00 0.01 0.01 0.01 0.01 0.00 0.00 0.00 0.00 0.00 0.01 0.01 0.03 0.04 0.04 0.04 0.05 0.06 0.05 0.02 0.02 0.02 0.02 0.02 0.03 0.03 0.03 0.03 0.02 0.02 0.02 0.01 0.01
0.00 0.00 0.00 0.00 0.00 0.00 0.00 0.00 0.00 0.01 0.01 0.01 0.01 0.01 0.00 0.00 0.01 0.01 0.00 0.00 0.00 0.00 0.01 0.02 0.05 0.06 0.04 0.04 0.05 0.05 0.04 0.03 0.02 0.03 0.04 0.05 0.05 0.04 0.04 0.03 0.02 0.02 0.02 0.01
0.00 0.00 0.00 0.00 0.00 0.00 0.00 0.01 0.00 0.00 0.00 0.00 0.01 0.01 0.00 0.00 0.00 0.00 0.00 0.00 0.00 0.01 0.01 0.02 0.04 0.07 0.06 0.04 0.04 0.04 0.03 0.02 0.02 0.03 0.04 0.05 0.07 0.07 0.04 0.03 0.04 0.03 0.03 0.03
0.00 0.00 0.00 0.00 0.00 0.00 0.00 0.01 0.02 0.01 0.01 0.01 0.01 0.01 0.01 0.00 0.00 0.00 0.00 0.00 0.00 0.01 0.01 0.02 0.05 0.06 0.07 0.05 0.04 0.03 0.02 0.02 0.02 0.02 0.04 0.06 0.07 0.07 0.06 0.03 0.02 0.02 0.02 0.03
0.00 0.01 0.00 0.00 0.00 0.00 0.00 0.00 0.01 0.02 0.02 0.01 0.01 0.01 0.01 0.01 0.00 0.00 0.00 0.00 0.00 0.01 0.01 0.02 0.04 0.07 0.07 0.07 0.05 0.03 0.02 0.01 0.02 0.03 0.05 0.05 0.06 0.06 0.06 0.04 0.03 0.03 0.03 0.03
0.00 0.01 0.01 0.00 0.00 0.00 0.00 0.00 0.01 0.02 0.02 0.01 0.01 0.01 0.01 0.01 0.01 0.00 0.00 0.00 0.00 0.01 0.01 0.02 0.03 0.06 0.06 0.05 0.05 0.05 0.03 0.02 0.02 0.03 0.03 0.03 0.05 0.06 0.06 0.05 0.04 0.04 0.03 0.04
0.00 0.01 0.01 0.01 0.01 0.00 0.00 0.00 0.01 0.01 0.01 0.00 0.01 0.01 0.01 0.01 0.00 0.00 0.00 0.00 0.00 0.00 0.01 0.02 0.02 0.04 0.06 0.07 0.08 0.07 0.05 0.04 0.03 0.03 0.02 0.03 0.05 0.05 0.06 0.05 0.05 0.04 0.04 0.05
0.00 0.00 0.01 0.01 0.00 0.00 0.00 0.00 0.00 0.00 0.00 0.00 0.01 0.01 0.00 0.00 0.00 0.00 0.00 0.00 0.00 0.00 0.00 0.01 0.03 0.04 0.07 0.11 0.11 0.09 0.06 0.04 0.04 0.03 0.02 0.03 0.05 0.05 0.04 0.04 0.04 0.04 0.04 0.05
0.00 0.00 0.00 0.01 0.00 0.00 0.00 0.00 0.00 0.00 0.00 0.00 0.01 0.01 0.00 0.00 0.00 0.00 0.00 0.00 0.00 0.00 0.00 0.00 0.03 0.06 0.09 0.11 0.12 0.11 0.08 0.06 0.06 0.04 0.04 0.06 0.07 0.06 0.04 0.03 0.03 0.03 0.03 0.04
0.00 0.00 0.00 0.00 0.00 0.00 0.00 0.00 0.00 0.00 0.01 0.00 0.01 0.01 0.00 0.00 0.00 0.00 0.00 0.00 0.00 0.00 0.00 0.00 0.01 0.05 0.08 0.08 0.08 0.09 0.10 0.10 0.09 0.08 0.09 0.08 0.06 0.04 0.03 0.02 0.02 0.03 0.03 0.04
0.00 0.00 0.00 0.00 0.00 0.00 0.01 0.01 0.00 0.00 0.00 0.00 0.00 0.00 0.00 0.00 0.00 0.00 0.00 0.00 0.00 0.00 0.00 0.00 0.00 0.02 0.05 0.07 0.06 0.05 0.06 0.07 0.08 0.08 0.08 0.05 0.03 0.02 0.02 0.02 0.02 0.02 0.03 0.03
0.00 0.00 0.01 0.01 0.01 0.01 0.01 0.01 0.01 0.01 0.01 0.01 0.00 0.00 0.00 0.00 0.00 0.00 0.00 0.00 0.01 0.00 0.00 0.00 0.00 0.01 0.03 0.04 0.05 0.04 0.03 0.04 0.05 0.05 0.05 0.03 0.02 0.02 0.01 0.01 0.02 0.02 0.02 0.02
0.00 0.00 0.01 0.01 0.01 0.01 0.00 0.00 0.00 0.01 0.01 0.01 0.01 0.00 0.00 0.00 0.00 0.00 0.00 0.00 0.01 0.01 0.00 0.00 0.00 0.00 0.01 0.02 0.03 0.03 0.03 0.02 0.02 0.02 0.02 0.02 0.02 0.02 0.01 0.01 0.02 0.02 0.01 0.01
0.01 0.00 0.01 0.01 0.02 0.02 0.01 0.00 0.01 0.01 0.02 0.02 0.01 0.01 0.01 0.01 0.01 0.00 0.00 0.00 0.01 0.01 0.00 0.00 0.00 0.01 0.01 0.02 0.03 0.03 0.03 0.02 0.01 0.01 0.01 0.01 0.01 0.02 0.01 0.02 0.02 0.02 0.02 0.02
0.01 0.01 0.01 0.01 0.02 0.02 0.02 0.01 0.01 0.02 0.03 0.03 0.03 0.03 0.02 0.02 0.01 0.01 0.01 0.00 0.01 0.01 0.00 0.00 0.00 0.01 0.01 0.02 0.03 0.03 0.03 0.02 0.01 0.01 0.01 0.01 0.01 0.01 0.02 0.02 0.03 0.02 0.01 0.02
0.02 0.02 0.01 0.01 0.01 0.02 0.02 0.01 0.02 0.02 0.02 0.02 0.02 0.03 0.02 0.01 0.01 0.01 0.01 0.00 0.01 0.00 0.00 0.00 0.00 0.01 0.01 0.02 0.03 0.03 0.03 0.02 0.01 0.01 0.02 0.01 0.01 0.01 0.03 0.03 0.03 0.02 0.02 0.01
0.02 0.02 0.02 0.02 0.02 0.01 0.02 0.02 0.02 0.02 0.02 0.01 0.01 0.01 0.02 0.02 0.01 0.01 0.01 0.00 0.00 0.00 0.00 0.00 0.00 0.00 0.01 0.03 0.04 0.04 0.03 0.02 0.01 0.01 0.02 0.01 0.01 0.02 0.03 0.04 0.04 0.02 0.02 0.02
0.01 0.01 0.01 0.01 0.01 0.01 0.01 0.01 0.01 0.01 0.01 0.01 0.01 0.01 0.01 0.02 0.02 0.02 0.02 0.00 0.00 0.00 0.00 0.00 0.00 0.00 0.01 0.03 0.03 0.03 0.03 0.02 0.02 0.01 0.02 0.02 0.02 0.02 0.02 0.03 0.03 0.03 0.02 0.02
0.00 0.00 0.01 0.01 0.01 0.00 0.00 0.01 0.01 0.01 0.01 0.01 0.02 0.02 0.01 0.01 0.01 0.01 0.01 0.01 0.00 0.00 0.00 0.00 0.00 0.01 0.01 0.03 0.04 0.03 0.04 0.03 0.02 0.01 0.01 0.02 0.02 0.02 0.03 0.03 0.03 0.03 0.03 0.03
0.00 0.00 0.00 0.01 0.01 0.01 0.00 0.00 0.01 0.01 0.01 0.02 0.02 0.02 0.02 0.02 0.01 0.01 0.01 0.01 0.00 0.00 0.00 0.00 0.00 0.01 0.01 0.03 0.06 0.06 0.05 0.04 0.04 0.03 0.02 0.02 0.02 0.02 0.03 0.03 0.03 0.05 0.05 0.04
MSLP
1012.30 1013.23 1014.00 1014.60 1015.03 1015.33 1015.54 1015.71 1015.88 1016.05 1016.23 1016.40 1016.54 1016.65 1016.72 1016.76 1016.79 1016.83 1016.89 1016.97 1017.08 1017.18 1017.25 1017.26 1017.21 1017.09 1016.92 1016.74 1016.58 1016.47 1016.45 1016.52 1016.66 1016.86 1017.07 1017.26 1017.40 1017.48 1017.50 1017.48 1017.46 1017.49 1017.58 1017.77
1012.61 1013.32 1013.87 1014.27 1014.56 1014.79 1015.01 1015.26 1015.55 1015.86 1016.16 1016.41 1016.58 1016.66 1016.65 1016.59 1016.51 1016.46 1016.48 1016.56 1016.71 1016.88 1017.05 1017.15 1017.17 1017.09 1016.93 1016.73 1016.54 1016.40 1016.36 1016.42 1016.57 1016.79 1017.04 1017.25 1017.41 1017.50 1017.51 1017.49 1017.47 1017.49 1017.60 1017.82
1012.62 1013.11 1013.45 1013.67 1013.84 1014.04 1014.31 1014.66 1015.09 1015.55 1015.97 1016.29 1016.47 1016.50 1016.39 1016.21 1016.01 1015.87 1015.84 1015.94 1016.14 1016.42 1016.70 1016.93 1017.05 1017.05 1016.94 1016.76 1016.56 1016.40 1016.33 1016.38 1016.54 1016.77 1017.03 1017.27 1017.45 1017.54 1017.56 1017.53 1017.50 1017.52 1017.64 1017.87
1012.40 1012.68 1012.84 1012.93 1013.04 1013.25 1013.60 1014.09 1014.68 1015.28 1015.80 1016.17 1016.33 1016.28 1016.05 1015.71 1015.38 1015.14 1015.06 1015.17 1015.44 1015.84 1016.26 1016.64 1016.90 1017.01 1016.98 1016.84 1016.65 1016.49 1016.41 1016.44 1016.59 1016.82 1017.09 1017.34 1017.53 1017.64 1017.66 1017.63 1017.59 1017.61 1017.71 1017.94
1012.05 1012.17 1012.19 1012.21 1012.32 1012.59 1013.05 1013.69 1014.42 1015.15 1015.75 1016.12 1016.23 1016.07 1015.69 1015.20 1014.72 1014.38 1014.25 1014.36 1014.71 1015.22 1015.80 1016.35 1016.76 1017.01 1017.08 1017.00 1016.85 1016.68 1016.59 1016.60 1016.73 1016.95 1017.22 1017.48 1017.68 1017.80 1017.83 1017.80 1017.76 1017.77 1017.85 1018.05
1011.69 1011.70 1011.65 1011.65 1011.80 1012.16 1012.74 1013.52 1014.38 1015.19 1015.83 1016.18 1016.21 1015.92 1015.39 1014.74 1014.12 1013.68 1013.50 1013.63 1014.04 1014.67 1015.40 1016.10 1016.68 1017.06 1017.24 1017.23 1017.12 1016.97 1016.86 1016.85 1016.96 1017.16 1017.42 1017.68 1017.89 1018.02 1018.07 1018.05 1018.02 1018.01 1018.08 1018.25
1011.41 1011.36 1011.29 1011.31 1011.52 1011.98 1012.68 1013.56 1014.50 1015.36 1015.99 1016.29 1016.23 1015.82 1015.15 1014.36 1013.64 1013.12 1012.91 1013.05 1013.53 1014.26 1015.11 1015.95 1016.66 1017.17 1017.44 1017.51 1017.43 1017.29 1017.18 1017.15 1017.23 1017.41 1017.66 1017.92 1018.15 1018.30 1018.37 1018.38 1018.36 1018.35 1018.40 1018.53
1011.24 1011.17 1011.11 1011.19 1011.47 1012.00 1012.77 1013.70 1014.67 1015.52 1016.11 1016.35 1016.20 1015.69 1014.92 1014.06 1013.27 1012.72 1012.50 1012.68 1013.21 1014.02 1014.96 1015.91 1016.72 1017.31 1017.66 1017.78 1017.73 1017.61 1017.49 1017.45 1017.51 1017.68 1017.92 1018.18 1018.43 1018.61 1018.72 1018.75 1018.75 1018.75 1018.80 1018.91
1011.15 1011.10 1011.08 1011.20 1011.54 1012.10 1012.89 1013.81 1014.74 1015.53 1016.05 1016.21 1016.00 1015.44 1014.64 1013.77 1013.00 1012.47 1012.30 1012.52 1013.10 1013.96 1014.96 1015.95 1016.81 1017.46 1017.85 1018.01 1017.99 1017.88 1017.77 1017.72 1017.77 1017.93 1018.17 1018.45 1018.72 1018.93 1019.08 1019.15 1019.19 1019.21 1019.26 1019.37
1011.09 1011.08 1011.12 1011.28 1011.62 1012.17 1012.90 1013.74 1014.56 1015.25 1015.68 1015.78 1015.54 1014.99 1014.25 1013.45 1012.77 1012.34 1012.25 1012.54 1013.17 1014.05 1015.07 1016.06 1016.93 1017.58 1017.99 1018.16 1018.17 1018.08 1017.98 1017.95 1018.00 1018.17 1018.42 1018.71 1019.00 1019.25 1019.43 1019.56 1019.63 1019.69 1019.76 1019.88
1010.96 1011.03 1011.12 1011.31 1011.63 1012.10 1012.72 1013.41 1014.08 1014.62 1014.95 1015.00 1014.77 1014.30 1013.69 1013.06 1012.55 1012.28 1012.33 1012.70 1013.37 1014.26 1015.24 1016.20 1017.02 1017.65 1018.04 1018.22 1018.25 1018.20 1018.13 1018.13 1018.22 1018.40 1018.66 1018.97 1019.28 1019.56 1019.78 1019.95 1020.06 1020.16 1020.27 1020.41
1010.74 1010.91 1011.06 1011.25 1011.52 1011.89 1012.34 1012.83 1013.31 1013.69 1013.91 1013.93 1013.75 1013.41 1012.99 1012.59 1012.31 1012.25 1012.45 1012.92 1013.63 1014.50 1015.43 1016.31 1017.07 1017.64 1018.00 1018.19 1018.25 1018.24 1018.24 1018.29 1018.42 1018.64 1018.92 1019.25 1019.58 1019.88 1020.13 1020.32 1020.48 1020.61 1020.76 1020.93
1010.41 1010.69 1010.92 1011.12 1011.32 1011.55 1011.81 1012.09 1012.35 1012.55 1012.66 1012.67 1012.56 1012.38 1012.19 1012.05 1012.03 1012.20 1012.57 1013.14 1013.88 1014.71 1015.56 1016.35 1017.02 1017.52 1017.87 1018.07 1018.17 1018.24 1018.31 1018.43 1018.63 1018.89 1019.21 1019.56 1019.90 1020.21 1020.48 1020.69 1020.88 1021.05 1021.23 1021.43
1010.01 1010.43 1010.73 1010.94 1011.07 1011.16 1011.23 1011.29 1011.33 1011.36 1011.37 1011.36 1011.33 1011.32 1011.35 1011.47 1011.71 1012.09 1012.62 1013.28 1014.03 1014.82 1015.58 1016.28 1016.85 1017.30 1017.63 1017.86 1018.02 1018.18 1018.35 1018.57 1018.84 1019.17 1019.53 1019.89 1020.24 1020.56 1020.83 1021.06 1021.27 1021.47 1021.68 1021.92
1009.61 1010.15 1010.53 1010.75 1010.83 1010.79 1010.68 1010.53 1010.38 1010.25 1010.16 1010.12 1010.16 1010.29 1010.52 1010.87 1011.32 1011.89 1012.55 1013.28 1014.03 1014.76 1015.45 1016.04 1016.55 1016.95 1017.28 1017.55 1017.80 1018.06 1018.35 1018.68 1019.04 1019.44 1019.84 1020.23 1020.59 1020.91 1021.18 1021.43 1021.66 1021.88 1022.12 1022.39
1009.25 1009.90 1010.34 1010.57 1010.60 1010.46 1010.20 1009.88 1009.55 1009.28 1009.09 1009.04 1009.12 1009.35 1009.73 1010.25 1010.87 1011.58 1012.33 1013.09 1013.83 1014.51 1015.11 1015.64 1016.09 1016.47 1016.82 1017.16 1017.50 1017.87 1018.28 1018.73 1019.19 1019.66 1020.11 1020.53 1020.90 1021.23 1021.52 1021.78 1022.04 1022.29 1022.56 1022.85
1008.97 1009.68 1010.16 1010.38 1010.37 1010.14 1009.76 1009.30 1008.84 1008.45 1008.19 1008.10 1008.20 1008.50 1008.97 1009.60 1010.33 1011.12 1011.92 1012.69 1013.40 1014.04 1014.59 1015.06 1015.48 1015.87 1016.26 1016.67 1017.11 1017.60 1018.13 1018.68 1019.24 1019.78 1020.28 1020.74 1021.14 1021.50 1021.81 1022.10 1022.38 1022.67 1022.97 1023.29
1008.74 1009.44 1009.91 1010.11 1010.04 1009.75 1009.29 1008.74 1008.19 1007.72 1007.40 1007.28 1007.38 1007.70 1008.22 1008.90 1009.68 1010.50 1011.31 1012.08 1012.77 1013.37 1013.89 1014.35 1014.77 1015.18 1015.62 1016.11 1016.65 1017.24 1017.87 1018.52 1019.16 1019.76 1020.32 1020.82 1021.26 1021.65 1022.01 1022.34 1022.67 1023.00 1023.34 1023.68
1008.51 1009.13 1009.52 1009.66 1009.54 1009.19 1008.68 1008.08 1007.49 1006.98 1006.63 1006.49 1006.59 1006.91 1007.44 1008.13 1008.92 1009.74 1010.56 1011.31 1011.99 1012.58 1013.10 1013.56 1014.01 1014.47 1014.96 1015.52 1016.14 1016.81 1017.52 1018.24 1018.94 1019.60 1020.21 1020.75 1021.24 1021.68 1022.09 1022.48 1022.86 1023.24 1023.62 1023.99
1008.20 1008.66 1008.92 1008.96 1008.77 1008.39 1007.85 1007.25 1006.66 1006.16 1005.82 1005.68 1005.78 1006.10 1006.62 1007.30 1008.08 1008.90 1009.70 1010.46 1011.14 1011.75 1012.28 1012.79 1013.28 1013.79 1014.34 1014.96 1015.63 1016.36 1017.11 1017.87 1018.60 1019.30 1019.95 1020.54 1021.07 1021.57 1022.03 1022.48 1022.92 1023.35 1023.77 1024.16
1007.73 1007.98 1008.07 1007.99 1007.72 1007.31 1006.78 1006.21 1005.67 1005.22 1004.92 1004.83 1004.94 1005.27 1005.79 1006.46 1007.22 1008.03 1008.83 1009.60 1010.30 1010.95 1011.53 1012.09 1012.64 1013.21 1013.82 1014.47 1015.18 1015.92 1016.69 1017.46 1018.20 1018.92 1019.58 1020.20 1020.78 1021.33 1021.85 1022.35 1022.84 1023.31 1023.76 1024.17
1007.08 1007.08 1006.98 1006.76 1006.43 1006.00 1005.51 1005.01 1004.55 1004.19 1003.98 1003.95 1004.11 1004.46 1004.98 1005.64 1006.40 1007.20 1008.02 1008.81 1009.55 1010.25 1010.90 1011.52 1012.14 1012.76 1013.41 1014.09 1014.81 1015.55 1016.30 1017.05 1017.78 1018.48 1019.16 1019.80 1020.40 1020.99 1021.55 1022.10 1022.62 1023.12 1023.58 1023.99
1006.23 1006.00 1005.71 1005.37 1004.98 1004.56 1004.13 1003.72 1003.39 1003.15 1003.05 1003.11 1003.33 1003.72 1004.26 1004.92 1005.68 1006.48 1007.31 1008.12 1008.92 1009.67 1010.39 1011.08 1011.76 1012.44 1013.12 1013.81 1014.51 1015.23 1015.95 1016.66 1017.36 1018.04 1018.71 1019.35 1019.98 1020.58 1021.17 1021.74 1022.28 1022.78 1023.23 1023.63
1005.25 1004.81 1004.37 1003.94 1003.52 1003.12 1002.78 1002.49 1002.29 1002.19 1002.22 1002.37 1002.67 1003.11 1003.66 1004.33 1005.08 1005.89 1006.72 1007.56 1008.39 1009.20 1009.98 1010.74 1011.47 1012.18 1012.88 1013.57 1014.26 1014.94 1015.62 1016.29 1016.95 1017.61 1018.25 1018.89 1019.52 1020.13 1020.73 1021.30 1021.83 1022.31 1022.74 1023.11
1004.20 1003.61 1003.07 1002.58 1002.16 1001.83 1001.57 1001.41 1001.35 1001.40 1001.54 1001.80 1002.17 1002.64 1003.22 1003.88 1004.62 1005.41 1006.25 1007.09 1007.95 1008.79 1009.61 1010.41 1011.18 1011.92 1012.63 1013.31 1013.98 1014.63 1015.27 1015.90 1016.53 1017.16 1017.79 1018.41 1019.04 1019.65 1020.24 1020.79 1021.30 1021.76 1022.15 1022.48
1003.17 1002.51 1001.92 1001.42 1001.04 1000.76 1000.61 1000.57 1000.64 1000.80 1001.06 1001.40 1001.83 1002.33 1002.91 1003.56 1004.27 1005.03 1005.84 1006.67 1007.52 1008.37 1009.21 1010.02 1010.81 1011.56 1012.27 1012.95 1013.60 1014.23 1014.84 1015.44 1016.05 1016.66 1017.28 1017.90 1018.51 1019.11 1019.69 1020.22 1020.70 1021.12 1021.48 1021.78
Thickness
5751 5734 5725 5730 5735 5736 5732 5726 5722 5729 5743 5736 5727 5726 5732 5737 5736 5733 5731 5731 5731 5733 5737 5738 5738 5737 5735 5733 5732 5731 5730 5729 5728 5725 5723 5720 5718 5718 5718 5719 5719 5718 5718 5717
5730 5727 5740 5746 5745 5740 5732 5722 5721 5729 5740 5734 5724 5723 5731 5734 5733 5734 5731 5729 5730 5730 5731 5731 5731 5730 5729 5728 5727 5726 5726 5724 5723 5721 5720 5718 5716 5714 5713 5714 5714 5714 5714 5713
5726 5735 5750 5744 5737 5731 5728 5723 5722 5723 5730 5731 5720 5711 5719 5728 5733 5733 5733 5731 5731 5730 5727 5727 5726 5724 5724 5723 5723 5724 5722 5721 5720 5718 5716 5714 5711 5709 5708 5708 5708 5710 5710 5709
5732 5743 5744 5737 5732 5731 5720 5735 5733 5727 5713 5703 5711 5688 5707 5717 5721 5725 5726 5726 5726 5726 5725 5722 5722 5720 5719 5720 5720 5720 5718 5716 5715 5714 5711 5708 5705 5702 5703 5703 5704 5705 5705 5705
5727 5737 5735 5730 5734 5736 5729 5739 5733 5726 5713 5701 5702 5690 5696 5711 5710 5716 5721 5723 5723 5723 5722 5720 5719 5718 5717 5716 5715 5714 5713 5711 5711 5710 5707 5704 5701 5700 5700 5699 5699 5699 5700 5700
5733 5743 5741 5738 5742 5742 5738 5729 5720 5708 5698 5685 5697 5690 5690 5701 5711 5716 5719 5720 5720 5719 5719 5717 5717 5715 5713 5712 5710 5709 5707 5706 5706 5705 5703 5701 5698 5696 5695 5694 5693 5693 5694 5694
5718 5730 5741 5744 5732 5732 5725 5700 5681 5677 5670 5676 5699 5693 5694 5713 5720 5720 5717 5716 5716 5715 5713 5711 5710 5708 5707 5706 5705 5704 5702 5701 5701 5701 5699 5697 5696 5694 5692 5690 5689 5689 5688 5689
5697 5700 5726 5735 5729 5719 5716 5701 5676 5665 5663 5674 5692 5688 5699 5718 5721 5721 5718 5715 5712 5709 5708 5706 5705 5703 5702 5701 5700 5699 5698 5696 5696 5695 5694 5693 5692 5690 5689 5688 5687 5686 5685 5685
5696 5700 5728 5736 5737 5728 5711 5700 5699 5679 5676 5669 5678 5690 5703 5713 5711 5711 5709 5706 5704 5703 5702 5701 5699 5698 5697 5695 5695 5694 5693 5692 5692 5691 5690 5689 5688 5686 5685 5684 5684 5682 5682 5682
5709 5699 5715 5728 5731 5727 5720 5708 5687 5676 5663 5656 5669 5677 5681 5695 5698 5701 5700 5699 5699 5699 5697 5695 5694 5693 5692 5691 5691 5690 5690 5688 5688 5687 5686 5686 5684 5683 5682 5680 5679 5678 5678 5678
5711 5694 5698 5709 5708 5705 5708 5702 5688 5672 5667 5655 5652 5668 5700 5698 5700 5698 5697 5696 5695 5694 5692 5690 5688 5688 5687 5685 5684 5683 5683 5684 5683 5682 5681 5681 5679 5679 5677 5676 5675 5674 5674 5673
5703 5687 5681 5694 5711 5717 5709 5700 5687 5670 5665 5661 5652 5666 5705 5702 5701 5698 5695 5693 5692 5690 5688 5685 5684 5682 5680 5678 5678 5677 5677 5678 5678 5678 5676 5676 5675 5674 5672 5671 5670 5670 5669 5668
5698 5681 5668 5673 5686 5700 5699 5699 5692 5678 5664 5656 5651 5667 5698 5697 5694 5694 5691 5688 5686 5684 5682 5679 5677 5675 5674 5673 5673 5673 5673 5673 5673 5673 5672 5671 5669 5668 5667 5667 5666 5665 5665 5664
5698 5678 5669 5666 5672 5684 5685 5691 5691 5677 5658 5656 5661 5671 5684 5686 5686 5686 5685 5683 5681 5679 5676 5674 5671 5669 5669 5669 5668 5668 5668 5668 5668 5667 5666 5665 5664 5663 5663 5663 5662 5661 5660 5659
5688 5673 5677 5680 5686 5686 5685 5686 5686 5680 5672 5663 5669 5673 5680 5683 5683 5683 5681 5679 5676 5673 5671 5669 5667 5665 5664 5664 5663 5663 5663 5663 5662 5661 5660 5660 5659 5659 5658 5657 5657 5656 5655 5655
5676 5670 5672 5673 5681 5680 5678 5683 5682 5680 5678 5674 5673 5671 5682 5683 5680 5677 5674 5673 5670 5668 5667 5665 5663 5661 5659 5658 5658 5657 5657 5657 5656 5655 5654 5655 5654 5653 5652 5652 5652 5651 5649 5649
5664 5662 5657 5654 5665 5668 5662 5673 5676 5674 5676 5674 5665 5669 5675 5673 5673 5671 5670 5668 5666 5664 5662 5660 5658 5656 5655 5654 5654 5652 5652 5651 5650 5649 5649 5649 5648 5648 5647 5647 5646 5644 5643 5642
5660 5653 5644 5644 5651 5644 5661 5679 5679 5673 5671 5672 5670 5670 5672 5671 5671 5670 5668 5665 5662 5660 5659 5656 5654 5653 5651 5650 5648 5647 5646 5645 5644 5644 5644 5643 5643 5642 5642 5641 5640 5639 5638 5637
5663 5652 5639 5633 5633 5642 5660 5671 5672 5665 5660 5666 5664 5665 5665 5665 5663 5660 5663 5662 5659 5658 5656 5653 5651 5649 5647 5645 5643 5641 5639 5639 5638 5638 5638 5639 5638 5637 5636 5635 5635 5634 5633 5631
5655 5649 5636 5628 5628 5628 5650 5668 5673 5664 5649 5661 5660 5658 5656 5655 5643 5646 5655 5655 5655 5653 5651 5649 5646 5644 5641 5639 5638 5635 5633 5632 5632 5633 5633 5634 5633 5632 5631 5631 5630 5629 5628 5626
5637 5632 5627 5623 5621 5632 5653 5663 5664 5640 5641 5655 5655 5653 5651 5646 5644 5647 5649 5649 5648 5647 5645 5644 5641 5637 5636 5634 5632 5629 5627 5626 5627 5628 5628 5628 5628 5627 5627 5626 5624 5623 5622 5619
5628 5622 5619 5616 5614 5626 5652 5654 5645 5642 5650 5650 5650 5649 5647 5645 5644 5643 5643 5642 5641 5639 5638 5636 5633 5631 5630 5629 5626 5623 5622 5623 5622 5621 5621 5621 5621 5622 5622 5619 5618 5616 5615 5612
5627 5629 5625 5624 5628 5641 5647 5648 5649 5647 5644 5644 5643 5643 5642 5639 5637 5636 5636 5635 5634 5633 5630 5629 5626 5624 5623 5622 5621 5618 5618 5617 5616 5615 5614 5615 5615 5614 5614 5613 5611 5609 5608 5606
5625 5629 5623 5622 5630 5637 5640 5642 5643 5643 5641 5640 5639 5637 5635 5632 5631 5629 5628 5627 5626 5625 5623 5621 5619 5617 5615 5615 5614 5614 5613 5612 5610 5608 5607 5608 5608 5607 5606 5606 5604 5603 5601 5600
5620 5621 5616 5616 5623 5627 5632 5634 5635 5636 5635 5634 5633 5631 5629 5627 5624 5622 5620 5620 5618 5617 5615 5613 5611 5609 5608 5608 5608 5607 5606 5605 5604 5603 5602 5602 5601 5600 5599 5598 5598 5598 5598 5597
5613 5614 5610 5612 5620 5617 5621 5627 5630 5629 5628 5627 5625 5623 5622 5620 5618 5615 5613 5612 5611 5609 5608 5605 5603 5602 5602 5602 5601 5601 5600 5599 5597 5596 5596 5595 5595 5594 5593 5591 5591 5592 5592 5592